www.pogodaiklimat.ru

Погода и климат >> Архив погоды >> Таиланд >> Сукхотаи


ПОГОДА в Сукхотаи

  • Прогноз погоды в Сукхотаи
  • Монитор погоды в Сукхотаи

АРХИВ ПОГОДЫ в Сукхотаи

Время (UTC), дата Ветер
(напр.,м/с)
 
Видим.   Явления Облачность Т
(С)
Тd
(С)
f
(%)
Тe
(С)
Тes
(С)
Комфортность P
(гПа)
Po
(гПа)
Тmin
(С)
Tmax
(С)
R
(мм)
R24
(мм)
S
(см)
09 17.04 штиль 0 10 км 3/0
[Ci fib]
+40.0 +25.9 45 +54 +64 опасность
перегрева
1004.5 999.0
12 17.04 штиль 0 8000 м мгла 5/0
[Cs]
+35.9 +26.4 58 +52 +52 опасность
перегрева
1004.4 998.8 +40.9
15 17.04 штиль 0 8000 м дымка 3/0
[Ci fib]
+33.0 +26.2 68 +49 +49 опасность
перегрева
1006.9 1001.3
18 17.04 штиль 0 8000 м дымка 3/0
[Ci fib]
+31.3 +24.1 66 +43 +43 опасность
перегрева
1006.1 1000.4
21 17.04 С 2 8000 м дымка 3/1 600 м
[Cu med, cong Cs]
+29.6 +24.6 75 +42 +42 опасность
перегрева
1005.7 999.9
00 18.04 штиль 0 6000 м дымка ясно +29.0 +25.5 81 +43 +44 опасность
перегрева
1007.6 1001.8 +27.4
03 18.04 штиль 0 10 км ясно +35.0 +25.2 57 +49 +69 опасность
перегрева
1009.2 1003.6
06 18.04 штиль 0 10 км ясно +39.4 +25.7 46 +53 +82 опасность
перегрева
1006.9 1001.3
09 18.04 штиль 0 10 км ясно +41.0 +24.2 39 +52 +63 опасность
перегрева
1002.9 997.4
12 18.04 штиль 0 8000 м мгла 5/3 600 м
[Cb cap Cs]
+36.5 +25.3 53 +51 +51 опасность
перегрева
1003.4 997.8 +41.9
15 18.04 Ю 2 8000 м мгла 3/0
[Ci fib]
+31.5 +20.6 52 +38 +38 очень
душно
1006.0 1000.3
18 18.04 В 2 8000 м дымка 3/0
[Ci fib]
+29.4 +23.8 72 +40 +40 очень
душно
1005.2 999.5
21 18.04 В 2 8000 м дымка 3/0
[Ci fib]
+27.6 +22.3 73 +36 +36 очень
душно
1004.5 998.8
00 19.04 ЮВ 3 8000 м дымка 3/0
[Ci fib]
+28.0 +23.3 76 +38 +39 очень
душно
1006.2 1000.5 +27.0
03 19.04 ЮЗ 3 10 км ясно +35.2 +24.3 53 +47 +60 опасность
перегрева
1008.1 1002.5
06 19.04 В 3 10 км ясно +40.5 +25.1 42 +53 +71 опасность
перегрева
1005.4 999.9
09 19.04 В 5 10 км 3/1 600 м
[Cu hum Ci fib]
+41.0 +23.3 37 +51 +54 опасность
перегрева
1001.9 996.4
12 19.04 ЮЗ 10 10 км 3/3 600 м
[Cu med, cong Ci fib]
+37.5 +22.9 43 +47 +47 опасность
перегрева
1001.6 996.1 +42.4
15 19.04 ЮЗ 6 10 км 3/3 600 м
[Cu med, cong Ci fib]
+34.3 +23.9 55 +46 +46 опасность
перегрева
1005.0 999.3
18 19.04 З 3 10 км 3/0
[Ci fib]
+31.4 +22.6 60 +41 +41 опасность
перегрева
1005.0 999.3
21 19.04 штиль 0 10 км ясно +29.2 +20.6 60 +36 +36 очень
душно
1004.1 998.3
00 20.04 З 5 8000 м дымка ясно +29.2 +22.6 68 +39 +39 очень
душно
1005.3 999.6 +26.7
03 20.04 З 5 8000 м мгла ясно +36.5 +23.7 48 +47 +55 опасность
перегрева
1006.1 1000.5
06 20.04 СВ 3 8000 м мгла ясно +40.5 +23.2 37 +50 +68 опасность
перегрева
1004.0 998.5
09 20.04 СВ 5 8000 м мгла ясно +42.0 +22.4 33 +50 +54 опасность
перегрева
1000.4 994.9
12 20.04 В 3 8000 м мгла 3/3 300 м
[Cb calv]
+37.0 +23.5 46 +47 +47 опасность
перегрева
1000.4 994.9 +42.9
15 20.04 ЮЗ 3 8000 м мгла 1/1 600 м
[Cu hum]
+33.0 +25.1 63 +47 +47 опасность
перегрева
1002.9 997.3
18 20.04 ЮЗ 3 8000 м мгла ясно +32.6 +23.9 60 +44 +44 опасность
перегрева
1003.0 997.3
21 20.04 В 3 8000 м дымка ясно +29.8 +23.6 69 +40 +40 очень
душно
1002.9 997.2
00 21.04 штиль 0 6000 м дымка ясно +28.7 +24.4 78 +41 +42 опасность
перегрева
1004.7 999.0 +28.0
03 21.04 ЮЗ 3 8000 м мгла ясно +34.9 +25.4 58 +49 +62 опасность
перегрева
1005.9 1000.3
06 21.04 ЮЗ 3 8000 м мгла ясно +39.8 +24.7 43 +52 +70 опасность
перегрева
1004.4 998.9
09 21.04 Ю 5 10 км 8/4 600 м
[Cu Sc Ac lent Cs]
+40.0 +24.6 42 +52 +54 опасность
перегрева
1001.4 995.8
12 21.04 Ю 3 8000 м мгла 4/3 600 м
[Sc Cs]
+36.1 +24.9 53 +50 +50 опасность
перегрева
1001.0 995.5 +42.0
15 21.04 штиль 0 8000 м дымка 3/0
[Ci fib]
+32.7 +26.1 68 +48 +48 опасность
перегрева
1004.1 998.5
18 21.04 штиль 0 8000 м дымка ясно +30.8 +23.9 67 +42 +42 опасность
перегрева
1004.3 998.6
21 21.04 штиль 0 8000 м дымка ясно +28.6 +25.0 81 +41 +41 опасность
перегрева
1003.8 998.1
00 22.04 штиль 0 6000 м дымка ясно +27.9 +24.0 79 +39 +40 очень
душно
1005.4 999.7 +27.0
03 22.04 штиль 0 8000 м дымка ясно +34.5 +26.9 65 +52 +73 опасность
перегрева
1007.4 1001.7
06 22.04 В 3 8000 м мгла 3/3 600 м
[Cu med, cong]
+38.8 +27.5 53 +57 +70 опасность
перегрева
1005.0 999.4
09 22.04 ЮЗ 5 8000 м мгла 9/4 600 м
[Cu Sc Ac lent Cs]
+38.1 +26.4 52 +54 +56 опасность
перегрева
1002.1 996.5
12 22.04 З 5 8000 м мгла 8/3 600 м
[Sc Ac trans Cs]
+36.3 +24.6 51 +49 +49 опасность
перегрева
1003.3 997.7 +40.0
15 22.04 ЮВ 7 10 км 8/3 600 м
[Cu Sc Ac lent Cs]
+27.0 +22.9 78 +36 +36 очень
душно
1009.7 1003.9
18 22.04 ЮВ 3 10 км 8/3 600 м
[Sc Ac lent Cs]
+26.5 +23.6 84 +36 +36 очень
душно
1009.7 1003.9
21 22.04 штиль 0 8000 м дымка 5/3 600 м
[Sc Ac trans Cs]
+25.6 +23.8 90 +35 +35 очень
душно
1009.9 1004.1
00 23.04 штиль 0 10 км 5/0
[Ac trans Ci fib]
+25.0 +23.5 91 +34 +35 очень
душно
1009.4 1003.5 +24.2
03 23.04 штиль 0 10 км 3/0
[Ci fib]
+32.2 +24.0 62 +44 +63 опасность
перегрева
1009.5 1003.8
06 23.04 штиль 0 10 км 3/0
[Ci fib]
+36.8 +24.4 49 +49 +76 опасность
перегрева
1008.3 1002.7
09 23.04 штиль 0 10 км ясно +36.4 +26.2 56 +52 +63 опасность
перегрева
1005.4 999.8
12 23.04 ЮВ 5 10 км 8/4 600 м
[Cu Sc Ac lent Cs]
+33.0 +25.6 65 +48 +48 опасность
перегрева
1006.7 1001.0 +38.9
15 23.04 З 6 10 км {гроза} 10/5 600 м
[Cu Sc Ac lent Cs]
+29.9 +24.3 72 +42 +42 опасность
перегрева
1008.7 1003.0
18 23.04 З 3 10 км {гроза} 4/3 600 м
[Sc Cs]
+28.2 +22.8 73 +38 +38 очень
душно
1009.0 1003.2
21 23.04 штиль 0 8000 м дымка 3/0
[Cs]
+27.0 +23.8 83 +37 +37 очень
душно
1008.8 1003.0
00 24.04 штиль 0 8000 м дымка ясно +27.0 +23.8 83 +37 +39 очень
душно
1009.3 1003.5 +25.8
03 24.04 штиль 0 10 км ясно +35.0 +26.0 60 +51 +71 опасность
перегрева
1010.5 1004.9
06 24.04 штиль 0 10 км 3/3 600 м
[Cu med, cong]
+39.0 +25.4 46 +52 +73 опасность
перегрева
1007.9 1002.4

 

Местоположение метеостанции Сукхотаи (Таиланд): широта 17.10 долгота 99.80 высота над уровнем моря 50 м.

В архиве по умолчанию представлена погода в Сукхотаи за последнюю неделю. Архивные данные за месяц целиком и за предыдущие месяцы, начиная с января 2011 года, Вы можете получить, выбрав интересующий диапазон дат из раскрывающегося списка и нажав кнопку "Ввод!".


*Определитесь, кто Вы:
робот инопланетянин человек

Внимание! Время в таблицах - всемирное. Для получения местного времени необходимо прибавить поправку, которая равна 7 ч.

Смотрите также архив погоды в соседних городах и на ближайших метеорологических станциях:

Погода в Си Самронг Агромете (Таиланд) (11 км)
Погода в Пхитсанулоке (Таиланд) (61 км)
Погода в Уттарадите (Таиланд) (66 км)
Погода в Таке (Таиланд) (73 км)
Погода в Кампхэнгпхете (Таиланд) (75 км)
Погода в Тоене (Таиланд) (84 км)
Погода на Плотине Пумипона (Таиланд) (85 км)
Погода в Пичит Агромете (Таиланд) (90 км)
Погода в Дои Му Со Агромете (Таиланд) (100 км)
Погода в Прхрэ (Таиланд) (125 км)

Пояснения к столбцам:

Ветер - указаны скорость ветра в м/с - средняя за 10 мин, порывы в срок и между сроками (в фигурных скобках) и направление, откуда дует ветер: С - северный, СВ - северо-восточный, В - восточный, ЮВ - юго-восточный, Ю - южный, ЮЗ - юго-западный, З - западный, СЗ - северо-западный.
Видимость - горизонтальная дальность видимости в метрах или километрах. При видимости от 1 до 10 км при отсутствии осадков обычно наблюдается дымка, при ухудшении видимости до 1 км и менее - туман. В сухую погоду видимость может ухудшаться дымом, пылью или мглою.
Явления - указаны атмосферные явления, наблюдавшиеся в срок или в последний час перед сроком; фигурными скобками обозначены явления, наблюдавшиеся между сроками (за 1-3 часа до срока); квадратными скобками обозначены град или гололедные отложения с указанием их диаметра в мм.
Облачность - указаны через наклонную черту общая и нижняя облачность в баллах и высота нижней границы облаков в метрах; квадратными скобками обозначены формы облаков: Ci - перистые, Cs - перисто-слоистые, Cc - перисто-кучевые, Ac - высококучевые, As - высокослоистые, Sc - слоисто-кучевые, Ns - слоисто-дождевые, Cu - кучевые, Cb - кучево-дождевые. Подробнее классификацию облаков см. в Атласе облаков (PDF).
T - Температура воздуха - температура, измеренная на высоте 2 м над землей.
Td - Температура точки росы - температура, при понижении до которой содержащийся в воздухе водяной пар достигнет насыщения.
f - Относительная влажность воздуха - влажноcть воздуха, измеренная на высоте 2 м над землей.
Te - Эффективная температура - температура, которую ощущает одетый по сезону человек в тени. Характеристика душности погоды. При расчете учитывается влияние влажности воздуха и скорости ветра на теплоощущения человека.
Tes - Эффективная температура на солнце - температура, которую ощущает человек, с поправкой на солнечный нагрев. Характеристика знойности погоды. Зависит от высоты солнца над горизонтом, облачности и скорости ветра. Ночью, в пасмурную погоду, а также при ветре 12 м/с и более поправка равна нулю.
P - Атмосферное давление - приведенное к уровню моря атмосферное давление.
Po - Атмосферное давление - измеренное на уровне метеостанции атмосферное давление.
Tmin - Минимальная температура - минимум температуры воздуха на высоте 2 м над землей.
Tmax - Максимальная температура - максимум температуры воздуха на высоте 2 м над землей.
R - Количество осадков - Количество выпавших осадков за период времени, мм. При наведении курсора мыши на число - период времени, за который выпало указанное количество осадков.
R24 - Количество осадков - Количество выпавших осадков за 24 часа, мм.
S - Снежный покров - Высота снежного покрова, см. При наведении курсора мыши на число - состояние снежного покрова и степень покрытия местности в баллах.